Regional Weather Roundup
Issued by NWS Kansas City/Pleasant Hill, MO

Home | Current Version | Previous Version | Graphics & Text | Print | Product List | Glossary Off
Versions: 1 2 3 4 5 6 7 8 9 10 11 12 13 14 15 16 17 18 19 20 21 22 23 24 25 26 27

000
ASUS43 KEAX 290510
RWREAX

WEATHER ROUNDUP FOR EASTERN KANSAS AND NORTHWEST MISSOURI
NATIONAL WEATHER SERVICE KANSAS CITY/PLEASANT HILL MO
1200 AM CDT WED MAR 29 2017

KSZ040-057-103>105-MOZ028-029-037-043-290600-
...KANSAS CITY METROPOLITAN AREA...

CITY           SKY/WX    TMP DP  RH WIND       PRES   REMARKS
K.C. INTL      CLOUDY    52  49  89 E18G28    29.97F
K.C. DOWNTOWN  CLOUDY    54  49  83 NE14G30   29.96F
LEES SUMMIT    MOCLDY    53  50  89 E20G26    29.96F
OLATHE - IXD   CLOUDY    53  49  86 E15G24    29.96R
OLATHE - OJC   CLOUDY    52  50  93 E15G25    29.94F
LAWRENCE       CLOUDY    54  50  86 E16       29.95F

$$

MOZ001>008-011>017-020>025-030>033-038>040-044>046-053-054-290600-
...NORTHERN AND CENTRAL MISSOURI...

CITY           SKY/WX    TMP DP  RH WIND       PRES   REMARKS
ST. JOSEPH     CLOUDY    52  49  89 MISG      30.02F
MOSBY            N/A     54  46  76 E14G22    30.02F
WARRENSBURG    MOCLDY    54  48  82 NE15G22   29.99F
WHITEMAN AFB   MOCLDY    54  54  99 E12G20    29.99F
CLINTON        CLOUDY    52  48  87 E13       29.98F
SEDALIA        CLOUDY    55  49  80 E14       30.03F
WARSAW         NOT AVBL
CHILLICOTHE      N/A     52  48  86 E8        30.09R
KIRKSVILLE     CLOUDY    50  46  86 E9        30.10R

$$

MOZ041-047>049-056>058-063>065-088>090-097-290600-
...EASTERN AND SOUTHERN MISSOURI...

CITY           SKY/WX    TMP DP  RH WIND       PRES   REMARKS
ST. LOUIS INTL CLOUDY    55  46  71 E12       30.07F
SPIRIT OF STL  CLOUDY    54  48  80 E9        30.07F
COLUMBIA       CLOUDY    53  49  86 E12       30.06S
JEFFERSON CITY CLOUDY    57  49  74 E10       30.06S
ROLLA          CLOUDY    53  48  83 E10       30.04S
OSAGE BEACH    CLOUDY    54  48  80 E8        30.04S
SPRINGFIELD    CLOUDY    58  50  75 E23G29    29.89F
JOPLIN         MOCLDY    62  53  72 E18G24    29.83F
WEST PLAINS    PTCLDY    55  49  80 E13       30.01F

$$

IAZ060-094-KSZ022-034>040-054-083-096-NEZ052-066-093-290600-
...KANSAS...SOUTHEAST NEBRASKA AND IOWA...

CITY           SKY/WX    TMP DP  RH WIND       PRES   REMARKS
TOPEKA         CLOUDY    54  50  86 NE15      29.96R
MANHATTAN      RAIN      51  49  92 NE13      29.98S FOG
EMPORIA        HVY RAIN  51  51 100 NE15G23   29.85F FOG
CHANUTE        CLOUDY    57  49  74 E20G29    29.77F
WICHITA        TSTM      51  51 100 N28G36    29.82F FOG
OMAHA          CLOUDY    49  41  74 E12       30.08S
LINCOLN        LGT RAIN  47  44  90 NE8       30.09S
FALLS CITY     CLOUDY    51  48  89 E10       30.03F
LAMONI         CLOUDY    49  44  83 E9G18     30.08S
DES MOINES     CLOUDY    50  45  83 E5        30.13R

$$





USA.gov is the U.S. government's official web portal to all federal, state and local government web resources and services.